QPF
0.00 0.00 0.00 0.00 0.00 0.00 0.00 0.00 0.00 0.00 0.00 0.00 0.00 0.01 0.16 0.39 0.00 0.00 0.00 0.00 0.00 0.00 0.00 0.00 0.00 0.00 0.05 0.02 0.01 0.02 0.00 0.00 0.00 0.00 0.00 0.00 0.00 0.00 0.00 0.00 0.00 0.00
0.00 0.00 0.00 0.00 0.00 0.00 0.00 0.00 0.00 0.00 0.16 0.11 0.11 0.22 0.04 0.00 0.00 0.00 0.00 0.00 0.00 0.00 0.00 0.00 0.00 0.00 0.00 0.01 0.00 0.00 0.00 0.00 0.00 0.00 0.00 0.00 0.00 0.00 0.00 0.00 0.00 0.00
0.00 0.00 0.00 0.00 0.00 0.00 0.00 0.00 0.00 0.00 0.01 0.01 0.02 0.03 0.01 0.00 0.00 0.00 0.00 0.00 0.00 0.00 0.00 0.00 0.00 0.00 0.00 0.10 0.11 0.02 0.01 0.00 0.00 0.00 0.00 0.00 0.00 0.00 0.00 0.00 0.00 0.00
0.00 0.00 0.00 0.00 0.00 0.00 0.00 0.00 0.00 0.00 0.00 0.00 0.00 0.00 0.00 0.00 0.00 0.00 0.00 0.00 0.00 0.00 0.00 0.03 0.07 0.03 0.01 0.05 0.04 0.01 0.00 0.00 0.00 0.00 0.00 0.00 0.00 0.00 0.00 0.00 0.00 0.00
0.00 0.00 0.00 0.00 0.00 0.00 0.00 0.00 0.00 0.00 0.00 0.15 0.06 0.00 0.00 0.00 0.00 0.00 0.00 0.00 0.00 0.00 0.00 0.00 0.00 0.00 0.00 0.00 0.00 0.00 0.00 0.00 0.00 0.00 0.00 0.00 0.00 0.00 0.00 0.00 0.00 0.00
0.00 0.00 0.00 0.00 0.00 0.00 0.00 0.00 0.00 0.00 0.01 0.02 0.05 0.07 0.00 0.00 0.00 0.00 0.00 0.00 0.00 0.00 0.00 0.00 0.06 0.05 0.02 0.00 0.00 0.00 0.00 0.00 0.00 0.00 0.00 0.00 0.00 0.00 0.00 0.00 0.00 0.00
0.00 0.00 0.00 0.00 0.00 0.00 0.00 0.00 0.00 0.00 0.01 0.32 0.08 0.01 0.02 0.00 0.00 0.00 0.00 0.00 0.00 0.00 0.00 0.00 0.00 0.01 0.03 0.00 0.00 0.00 0.00 0.00 0.00 0.00 0.00 0.00 0.00 0.00 0.00 0.00 0.00 0.00
0.00 0.00 0.00 0.00 0.00 0.00 0.00 0.00 0.00 0.00 0.00 0.01 0.01 0.02 0.04 0.00 0.00 0.00 0.00 0.00 0.00 0.00 0.00 0.00 0.00 0.00 0.02 0.00 0.00 0.00 0.00 0.00 0.00 0.00 0.00 0.00 0.00 0.00 0.00 0.00 0.00 0.00
0.00 0.00 0.00 0.00 0.00 0.00 0.00 0.00 0.00 0.00 0.00 0.00 0.02 0.01 0.02 0.00 0.00 0.00 0.00 0.00 0.00 0.00 0.00 0.00 0.00 0.00 0.00 0.00 0.00 0.00 0.00 0.00 0.00 0.00 0.00 0.00 0.00 0.00 0.00 0.00 0.00 0.00
0.00 0.00 0.00 0.00 0.00 0.00 0.00 0.00 0.00 0.00 0.00 0.00 0.01 0.02 0.08 0.05 0.00 0.00 0.00 0.00 0.00 0.00 0.00 0.00 0.00 0.00 0.00 0.00 0.00 0.00 0.00 0.00 0.00 0.00 0.00 0.00 0.00 0.00 0.00 0.00 0.00 0.00
0.00 0.00 0.00 0.00 0.00 0.00 0.00 0.00 0.00 0.00 0.00 0.00 0.00 0.00 0.00 0.00 0.00 0.00 0.00 0.00 0.00 0.00 0.00 0.00 0.00 0.00 0.00 0.00 0.00 0.00 0.00 0.00 0.00 0.00 0.00 0.00 0.00 0.00 0.00 0.00 0.00 0.00
0.00 0.00 0.00 0.00 0.00 0.00 0.00 0.00 0.00 0.00 0.00 0.01 0.04 0.03 0.00 0.00 0.00 0.00 0.00 0.00 0.00 0.00 0.00 0.00 0.00 0.00 0.00 0.01 0.00 0.00 0.00 0.00 0.00 0.00 0.00 0.00 0.00 0.00 0.00 0.00 0.00 0.00
0.00 0.00 0.00 0.00 0.00 0.00 0.00 0.00 0.00 0.00 0.00 0.00 0.03 0.00 0.00 0.00 0.00 0.00 0.00 0.00 0.00 0.00 0.00 0.00 0.00 0.00 0.00 0.00 0.00 0.00 0.00 0.00 0.00 0.00 0.00 0.00 0.00 0.00 0.00 0.00 0.00 0.00
0.00 0.00 0.00 0.00 0.00 0.00 0.00 0.00 0.00 0.00 0.00 0.00 0.03 0.01 0.00 0.00 0.00 0.00 0.00 0.00 0.00 0.00 0.00 0.00 0.00 0.00 0.00 0.00 0.00 0.00 0.00 0.00 0.00 0.00 0.00 0.00 0.00 0.00 0.00 0.00 0.00 0.00
0.00 0.00 0.00 0.00 0.00 0.00 0.00 0.00 0.00 0.00 0.00 0.00 0.00 0.01 0.00 0.00 0.00 0.00 0.00 0.00 0.00 0.00 0.00 0.00 0.00 0.00 0.00 0.00 0.00 0.00 0.00 0.00 0.00 0.00 0.00 0.00 0.00 0.00 0.00 0.00 0.00 0.00
0.00 0.00 0.00 0.00 0.00 0.00 0.00 0.00 0.00 0.00 0.00 0.00 0.00 0.00 0.00 0.00 0.00 0.00 0.00 0.00 0.00 0.00 0.00 0.00 0.00 0.00 0.00 0.00 0.00 0.00 0.00 0.00 0.00 0.00 0.00 0.00 0.00 0.00 0.00 0.00 0.00 0.00
0.00 0.00 0.00 0.00 0.00 0.00 0.00 0.00 0.00 0.00 0.00 0.00 0.00 0.00 0.00 0.00 0.00 0.00 0.00 0.00 0.00 0.00 0.00 0.00 0.00 0.00 0.00 0.00 0.00 0.00 0.00 0.00 0.00 0.00 0.00 0.00 0.00 0.00 0.00 0.00 0.00 0.00
0.00 0.00 0.00 0.00 0.00 0.00 0.00 0.00 0.00 0.00 0.00 0.00 0.00 0.00 0.00 0.00 0.00 0.00 0.00 0.00 0.00 0.00 0.00 0.00 0.00 0.00 0.00 0.00 0.00 0.00 0.00 0.00 0.00 0.00 0.00 0.00 0.00 0.00 0.00 0.00 0.00 0.00
0.00 0.00 0.00 0.00 0.00 0.00 0.00 0.00 0.00 0.00 0.00 0.00 0.00 0.00 0.00 0.00 0.00 0.00 0.00 0.00 0.00 0.00 0.00 0.00 0.00 0.00 0.00 0.00 0.00 0.00 0.00 0.00 0.00 0.00 0.00 0.00 0.00 0.00 0.00 0.03 0.01 0.02
0.00 0.00 0.00 0.00 0.00 0.00 0.00 0.00 0.00 0.00 0.00 0.00 0.00 0.00 0.00 0.00 0.00 0.00 0.00 0.00 0.00 0.00 0.00 0.00 0.00 0.00 0.00 0.00 0.00 0.00 0.00 0.00 0.00 0.00 0.00 0.00 0.00 0.00 0.02 0.01 0.01 0.01
0.00 0.00 0.00 0.00 0.00 0.00 0.00 0.00 0.00 0.00 0.00 0.00 0.00 0.00 0.00 0.00 0.00 0.00 0.00 0.00 0.00 0.00 0.00 0.00 0.00 0.00 0.00 0.00 0.00 0.00 0.00 0.00 0.00 0.00 0.00 0.00 0.00 0.01 0.06 0.00 0.00 0.00
0.00 0.00 0.00 0.00 0.00 0.00 0.00 0.00 0.00 0.00 0.01 0.01 0.00 0.00 0.01 0.01 0.00 0.00 0.00 0.00 0.00 0.00 0.00 0.00 0.00 0.00 0.00 0.00 0.00 0.00 0.00 0.00 0.00 0.00 0.00 0.00 0.01 0.01 0.00 0.00 0.00 0.00
0.00 0.00 0.00 0.00 0.00 0.00 0.00 0.00 0.00 0.00 0.00 0.01 0.01 0.01 0.00 0.00 0.00 0.00 0.00 0.00 0.00 0.00 0.00 0.00 0.00 0.00 0.00 0.00 0.00 0.00 0.00 0.00 0.00 0.00 0.00 0.01 0.00 0.01 0.00 0.00 0.00 0.00
0.00 0.00 0.00 0.00 0.00 0.00 0.00 0.00 0.00 0.00 0.00 0.00 0.00 0.01 0.01 0.00 0.00 0.00 0.00 0.00 0.00 0.00 0.00 0.00 0.00 0.00 0.00 0.00 0.00 0.00 0.01 0.04 0.01 0.00 0.00 0.00 0.00 0.00 0.00 0.00 0.00 0.00
0.00 0.00 0.00 0.00 0.00 0.00 0.00 0.00 0.00 0.00 0.00 0.01 0.00 0.00 0.00 0.00 0.00 0.00 0.00 0.00 0.00 0.00 0.00 0.00 0.00 0.00 0.00 0.00 0.00 0.00 0.01 0.06 0.03 0.00 0.00 0.00 0.00 0.00 0.00 0.00 0.00 0.00
0.00 0.00 0.00 0.00 0.00 0.00 0.00 0.00 0.00 0.00 0.01 0.01 0.01 0.03 0.00 0.00 0.00 0.00 0.00 0.00 0.00 0.00 0.00 0.00 0.00 0.00 0.00 0.00 0.00 0.00 0.00 0.00 0.00 0.00 0.00 0.00 0.00 0.00 0.00 0.00 0.00 0.00
MSLP
1011.88 1012.20 1012.60 1012.88 1013.16 1013.36 1013.80 1014.24 1014.60 1014.88 1015.12 1015.52 1015.92 1016.32 1016.68 1017.04 1017.40 1017.60 1017.72 1017.84 1017.92 1018.04 1018.24 1018.44 1018.68 1019.00 1019.24 1019.36 1019.64 1019.84 1020.12 1020.12 1020.20 1020.48 1020.60 1020.76 1020.92 1021.04 1021.20 1021.40 1021.56 1021.52
1011.56 1011.92 1012.28 1012.64 1013.00 1013.24 1013.52 1013.76 1014.20 1014.52 1015.00 1015.36 1015.68 1016.00 1016.32 1016.60 1017.08 1017.32 1017.56 1017.76 1017.92 1018.08 1018.32 1018.48 1018.68 1018.88 1019.08 1019.32 1019.60 1019.84 1020.16 1020.36 1020.24 1020.52 1020.48 1020.68 1020.96 1021.16 1021.20 1021.40 1021.52 1021.92
1011.44 1011.80 1012.08 1012.40 1012.72 1013.08 1013.36 1013.68 1013.96 1014.36 1014.80 1015.16 1015.52 1015.84 1016.24 1016.60 1016.96 1017.20 1017.40 1017.56 1017.80 1018.12 1018.32 1018.44 1018.56 1018.72 1018.88 1019.12 1019.52 1019.76 1020.12 1020.36 1020.36 1020.56 1020.52 1020.64 1021.08 1021.12 1021.40 1021.60 1021.72 1021.80
1011.24 1011.44 1011.76 1012.16 1012.44 1012.80 1013.16 1013.56 1014.00 1014.44 1014.84 1015.20 1015.48 1015.80 1016.08 1016.48 1016.80 1017.04 1017.28 1017.48 1017.72 1018.04 1018.28 1018.40 1018.48 1018.80 1019.00 1019.28 1019.52 1019.68 1020.00 1020.28 1020.44 1020.56 1020.68 1021.08 1021.28 1021.36 1021.56 1021.68 1021.80 1021.96
1011.04 1011.44 1011.72 1011.96 1012.32 1012.56 1012.92 1013.32 1013.80 1014.24 1014.60 1015.00 1015.44 1015.64 1015.92 1016.28 1016.64 1016.92 1017.20 1017.52 1017.76 1018.00 1018.24 1018.36 1018.60 1018.80 1019.04 1019.36 1019.60 1019.76 1020.04 1020.20 1020.56 1020.64 1020.72 1021.00 1021.40 1021.48 1021.64 1021.60 1021.60 1021.68
1010.80 1011.08 1011.44 1011.80 1012.08 1012.40 1012.80 1013.12 1013.52 1014.00 1014.52 1014.88 1014.92 1015.28 1015.68 1016.04 1016.36 1016.68 1017.08 1017.40 1017.72 1017.96 1018.24 1018.44 1018.64 1018.88 1019.08 1019.40 1019.56 1019.68 1019.88 1020.16 1020.56 1020.68 1020.80 1020.96 1021.36 1021.60 1021.64 1021.64 1021.56 1021.64
1010.52 1010.84 1011.20 1011.60 1012.00 1012.24 1012.60 1012.96 1013.40 1013.80 1014.12 1014.28 1014.88 1015.32 1015.56 1015.96 1016.28 1016.60 1016.96 1017.28 1017.64 1017.92 1018.16 1018.40 1018.64 1018.92 1019.12 1019.36 1019.56 1019.80 1020.00 1020.20 1020.56 1020.72 1020.76 1021.20 1021.32 1021.60 1021.76 1021.68 1021.56 1021.68
1010.36 1010.64 1011.00 1011.44 1011.80 1012.16 1012.48 1012.88 1013.24 1013.64 1013.92 1014.36 1014.72 1015.08 1015.36 1015.72 1016.08 1016.52 1016.84 1017.24 1017.56 1017.84 1018.12 1018.40 1018.60 1018.80 1019.08 1019.28 1019.52 1019.84 1020.08 1020.36 1020.56 1020.68 1020.88 1021.20 1021.36 1021.44 1021.68 1021.72 1021.72 1021.72
1010.20 1010.56 1010.88 1011.28 1011.64 1012.00 1012.32 1012.72 1013.08 1013.44 1013.76 1014.08 1014.48 1014.96 1015.32 1015.56 1016.00 1016.40 1016.80 1017.16 1017.48 1017.72 1018.04 1018.40 1018.60 1018.84 1019.12 1019.24 1019.52 1019.64 1019.92 1020.32 1020.52 1020.64 1020.80 1021.04 1021.20 1021.36 1021.52 1021.80 1021.84 1021.92
1010.00 1010.36 1010.76 1011.12 1011.44 1011.72 1012.08 1012.48 1012.84 1013.20 1013.56 1013.88 1014.32 1014.84 1015.36 1015.76 1016.00 1016.36 1016.76 1017.08 1017.32 1017.68 1017.96 1018.28 1018.64 1018.88 1019.12 1019.24 1019.36 1019.52 1019.84 1020.16 1020.52 1020.72 1020.80 1020.88 1020.96 1021.28 1021.60 1021.76 1021.84 1022.04
1009.68 1010.00 1010.44 1010.88 1011.16 1011.48 1011.84 1012.28 1012.64 1013.04 1013.44 1013.80 1014.32 1014.80 1015.20 1015.68 1016.16 1016.40 1016.68 1017.00 1017.20 1017.48 1017.84 1018.16 1018.44 1018.68 1018.92 1019.16 1019.36 1019.52 1019.72 1020.04 1020.36 1020.60 1020.72 1020.84 1021.04 1021.28 1021.56 1021.72 1021.92 1021.92
1009.36 1009.68 1010.08 1010.48 1010.84 1011.20 1011.60 1012.04 1012.48 1012.84 1013.24 1013.68 1014.08 1014.60 1015.08 1015.44 1015.80 1016.24 1016.44 1016.76 1017.04 1017.36 1017.60 1017.92 1018.24 1018.48 1018.68 1018.88 1019.16 1019.48 1019.76 1020.04 1020.28 1020.44 1020.64 1020.84 1021.12 1021.40 1021.56 1021.76 1021.84 1022.12
1008.92 1009.24 1009.64 1010.16 1010.56 1010.92 1011.40 1011.88 1012.28 1012.64 1013.00 1013.48 1013.96 1014.36 1014.84 1015.32 1015.72 1016.00 1016.32 1016.52 1016.88 1017.20 1017.48 1017.76 1018.12 1018.40 1018.64 1018.92 1019.16 1019.40 1019.68 1019.96 1020.24 1020.44 1020.68 1020.92 1021.12 1021.32 1021.56 1021.76 1021.92 1022.16
1008.48 1008.84 1009.36 1009.84 1010.28 1010.72 1011.16 1011.60 1012.04 1012.44 1012.80 1013.28 1013.80 1014.24 1014.64 1014.96 1015.36 1015.72 1016.16 1016.48 1016.80 1017.08 1017.40 1017.68 1018.00 1018.36 1018.64 1018.88 1019.12 1019.36 1019.64 1019.88 1020.08 1020.32 1020.60 1020.88 1021.12 1021.36 1021.56 1021.72 1021.92 1022.16
1008.16 1008.60 1009.08 1009.60 1010.08 1010.56 1011.00 1011.40 1011.80 1012.20 1012.64 1013.08 1013.56 1013.96 1014.32 1014.72 1015.12 1015.52 1016.00 1016.44 1016.80 1017.04 1017.36 1017.64 1017.88 1018.16 1018.44 1018.72 1019.08 1019.40 1019.56 1019.76 1020.00 1020.24 1020.52 1020.80 1021.12 1021.36 1021.60 1021.76 1021.96 1022.16
1007.84 1008.32 1008.80 1009.32 1009.88 1010.32 1010.76 1011.20 1011.68 1012.12 1012.48 1012.88 1013.28 1013.68 1014.12 1014.60 1015.04 1015.44 1015.80 1016.16 1016.60 1017.00 1017.32 1017.56 1017.84 1018.08 1018.32 1018.52 1018.76 1019.08 1019.48 1019.72 1020.04 1020.28 1020.48 1020.68 1020.96 1021.28 1021.56 1021.80 1021.92 1022.12
1007.64 1008.12 1008.56 1009.12 1009.52 1010.04 1010.56 1011.04 1011.48 1011.88 1012.28 1012.64 1013.04 1013.48 1013.96 1014.44 1014.88 1015.36 1015.76 1016.08 1016.36 1016.76 1017.16 1017.48 1017.76 1018.00 1018.24 1018.56 1018.80 1019.00 1019.28 1019.64 1019.88 1020.24 1020.44 1020.60 1020.80 1021.04 1021.36 1021.64 1021.96 1022.12
1007.40 1007.88 1008.40 1008.84 1009.32 1009.88 1010.36 1010.80 1011.28 1011.72 1012.12 1012.48 1012.88 1013.40 1013.84 1014.28 1014.76 1015.08 1015.48 1015.92 1016.28 1016.64 1017.00 1017.32 1017.60 1017.80 1018.12 1018.48 1018.76 1018.96 1019.12 1019.44 1019.80 1020.12 1020.40 1020.64 1020.88 1021.08 1021.32 1021.56 1021.76 1021.96
1007.12 1007.68 1008.16 1008.60 1009.00 1009.60 1010.20 1010.64 1011.08 1011.56 1011.96 1012.40 1012.72 1013.12 1013.64 1014.16 1014.56 1015.00 1015.40 1015.80 1016.08 1016.48 1016.84 1017.20 1017.44 1017.72 1018.00 1018.32 1018.60 1018.84 1019.04 1019.32 1019.72 1020.00 1020.32 1020.64 1020.88 1021.08 1021.28 1021.48 1021.64 1021.72
1006.84 1007.40 1007.92 1008.36 1008.72 1009.36 1009.96 1010.44 1010.88 1011.28 1011.68 1012.12 1012.56 1013.12 1013.56 1014.00 1014.48 1014.80 1015.20 1015.60 1015.92 1016.28 1016.68 1017.08 1017.28 1017.60 1017.88 1018.24 1018.52 1018.76 1019.04 1019.28 1019.64 1019.92 1020.20 1020.52 1020.76 1021.00 1021.16 1021.40 1021.48 1021.64
1006.60 1007.08 1007.64 1008.12 1008.52 1009.04 1009.64 1010.16 1010.64 1011.12 1011.60 1012.00 1012.36 1012.84 1013.40 1013.84 1014.32 1014.76 1015.12 1015.44 1015.80 1016.16 1016.56 1016.88 1017.04 1017.36 1017.72 1018.12 1018.44 1018.72 1019.04 1019.24 1019.60 1019.88 1020.20 1020.48 1020.68 1020.84 1021.00 1021.16 1021.36 1021.56
1006.20 1006.76 1007.28 1007.80 1008.36 1008.88 1009.40 1009.88 1010.36 1010.84 1011.40 1011.88 1012.28 1012.76 1013.20 1013.56 1014.04 1014.40 1014.88 1015.32 1015.64 1015.96 1016.32 1016.60 1016.88 1017.16 1017.56 1018.00 1018.36 1018.72 1019.04 1019.28 1019.56 1019.80 1020.08 1020.40 1020.68 1020.96 1021.04 1021.12 1021.24 1021.40
1005.84 1006.44 1007.00 1007.52 1008.08 1008.68 1009.20 1009.64 1010.16 1010.76 1011.24 1011.64 1012.16 1012.68 1013.16 1013.60 1013.92 1014.28 1014.60 1014.96 1015.44 1015.76 1015.96 1016.28 1016.64 1017.04 1017.40 1017.84 1018.24 1018.64 1018.96 1019.20 1019.44 1019.76 1020.04 1020.32 1020.64 1020.88 1021.00 1021.08 1021.16 1021.28
1005.52 1006.04 1006.72 1007.32 1007.88 1008.40 1008.92 1009.48 1009.96 1010.44 1010.96 1011.48 1011.84 1012.48 1013.00 1013.32 1013.64 1014.08 1014.48 1014.72 1015.00 1015.36 1015.56 1015.92 1016.36 1016.88 1017.28 1017.72 1018.08 1018.40 1018.52 1018.96 1019.40 1019.68 1020.04 1020.28 1020.56 1020.72 1020.80 1020.92 1020.96 1021.00
1005.28 1005.84 1006.44 1007.08 1007.68 1008.24 1008.76 1009.28 1009.76 1010.24 1010.72 1011.24 1011.52 1011.88 1012.40 1012.92 1013.36 1013.72 1014.20 1014.56 1014.76 1014.88 1015.28 1015.68 1016.20 1016.76 1017.16 1017.48 1017.88 1018.16 1018.44 1018.80 1019.16 1019.48 1019.92 1020.24 1020.44 1020.68 1020.84 1020.92 1021.04 1021.00
1005.12 1005.72 1006.24 1006.84 1007.48 1008.08 1008.56 1009.00 1009.44 1010.04 1010.64 1011.08 1011.44 1011.72 1012.16 1012.64 1013.04 1013.40 1013.88 1014.28 1014.60 1014.96 1015.32 1015.52 1015.96 1016.52 1017.04 1017.32 1017.60 1017.96 1018.08 1018.36 1018.80 1019.20 1019.56 1019.92 1020.28 1020.44 1020.76 1020.96 1021.04 1021.08
Thickness
5695 5693 5690 5688 5686 5684 5682 5680 5677 5676 5674 5672 5669 5666 5663 5660 5658 5655 5653 5652 5651 5650 5648 5647 5645 5642 5640 5637 5635 5633 5630 5630 5630 5627 5626 5625 5623 5621 5620 5618 5617 5616
5695 5692 5689 5686 5684 5683 5681 5680 5678 5676 5673 5671 5668 5666 5663 5660 5657 5655 5652 5650 5648 5647 5646 5644 5642 5640 5638 5635 5632 5629 5627 5625 5626 5625 5624 5623 5621 5619 5618 5616 5615 5613
5693 5691 5688 5686 5683 5682 5680 5679 5677 5675 5672 5669 5667 5664 5661 5659 5656 5654 5651 5649 5647 5645 5644 5642 5641 5639 5637 5634 5631 5628 5625 5623 5623 5623 5622 5621 5618 5616 5615 5613 5612 5611
5691 5689 5687 5685 5683 5681 5679 5678 5675 5673 5670 5667 5664 5662 5661 5658 5655 5652 5650 5647 5646 5643 5642 5641 5639 5636 5634 5632 5630 5627 5624 5623 5621 5620 5619 5617 5615 5613 5612 5611 5610 5608
5689 5687 5685 5683 5681 5680 5678 5677 5674 5671 5668 5665 5663 5662 5660 5657 5654 5652 5648 5645 5643 5641 5640 5638 5636 5634 5632 5629 5627 5625 5623 5621 5618 5617 5616 5614 5611 5610 5609 5608 5608 5606
5687 5686 5684 5682 5680 5679 5677 5675 5673 5670 5667 5665 5664 5662 5659 5656 5653 5651 5647 5644 5642 5639 5637 5636 5633 5631 5629 5626 5624 5623 5621 5619 5616 5614 5613 5611 5608 5607 5606 5605 5605 5604
5686 5685 5683 5681 5679 5677 5676 5674 5671 5669 5666 5665 5663 5660 5658 5655 5652 5649 5646 5643 5639 5637 5635 5633 5631 5629 5626 5624 5622 5620 5618 5616 5613 5611 5610 5607 5605 5603 5602 5602 5602 5601
5684 5683 5681 5679 5677 5675 5674 5672 5669 5667 5665 5663 5661 5658 5656 5654 5651 5648 5644 5641 5638 5636 5633 5631 5629 5626 5624 5622 5620 5617 5615 5612 5610 5609 5606 5604 5602 5601 5600 5599 5599 5598
5682 5681 5679 5677 5676 5674 5673 5670 5669 5666 5664 5663 5660 5657 5654 5652 5649 5646 5642 5639 5637 5634 5631 5629 5627 5624 5622 5620 5617 5615 5613 5610 5607 5606 5604 5602 5600 5599 5598 5596 5596 5595
5680 5680 5678 5676 5675 5674 5672 5669 5667 5665 5663 5661 5658 5655 5652 5649 5646 5644 5640 5638 5635 5632 5630 5626 5624 5622 5619 5617 5616 5613 5611 5607 5604 5603 5602 5601 5600 5598 5596 5594 5593 5592
5680 5679 5677 5676 5675 5673 5671 5668 5665 5664 5662 5659 5657 5653 5650 5647 5643 5641 5638 5636 5633 5631 5628 5625 5623 5621 5618 5616 5613 5611 5609 5606 5603 5601 5600 5600 5598 5596 5594 5593 5591 5590
5680 5679 5678 5675 5673 5672 5670 5666 5664 5662 5661 5658 5655 5652 5648 5645 5642 5640 5637 5635 5632 5630 5627 5624 5622 5619 5617 5614 5611 5609 5607 5604 5602 5601 5599 5598 5596 5594 5592 5590 5589 5587
5680 5680 5678 5675 5673 5671 5669 5665 5663 5661 5660 5657 5653 5650 5647 5644 5641 5638 5636 5634 5631 5629 5626 5623 5620 5617 5614 5612 5609 5607 5605 5603 5601 5599 5597 5596 5594 5592 5590 5588 5586 5584
5680 5680 5677 5674 5672 5669 5667 5664 5662 5660 5659 5656 5652 5650 5647 5644 5641 5638 5635 5632 5630 5627 5625 5622 5619 5616 5612 5610 5608 5606 5604 5602 5600 5598 5596 5594 5591 5590 5587 5586 5584 5581
5679 5678 5676 5673 5670 5668 5665 5663 5661 5659 5657 5655 5651 5649 5646 5643 5641 5637 5634 5630 5628 5625 5622 5620 5617 5614 5612 5610 5607 5604 5602 5601 5599 5597 5595 5592 5589 5587 5585 5583 5581 5578
5678 5677 5674 5672 5669 5667 5664 5661 5659 5657 5656 5653 5651 5648 5645 5642 5638 5635 5632 5629 5626 5623 5620 5617 5615 5613 5611 5608 5606 5603 5601 5599 5596 5594 5593 5590 5588 5585 5582 5580 5577 5575
5677 5676 5673 5670 5668 5665 5662 5660 5658 5656 5654 5652 5650 5647 5643 5640 5637 5633 5630 5627 5625 5622 5618 5615 5612 5611 5608 5606 5603 5602 5600 5597 5595 5592 5590 5589 5586 5583 5580 5577 5574 5571
5676 5674 5671 5669 5667 5663 5660 5658 5656 5654 5652 5650 5648 5645 5642 5638 5635 5632 5629 5626 5623 5620 5616 5613 5611 5609 5607 5603 5601 5599 5598 5596 5593 5590 5587 5585 5582 5580 5577 5574 5572 5569
5674 5672 5670 5668 5666 5662 5658 5656 5654 5652 5651 5649 5647 5644 5640 5637 5633 5630 5627 5624 5621 5618 5615 5612 5609 5607 5605 5601 5599 5597 5596 5594 5591 5588 5585 5582 5579 5577 5574 5572 5569 5566
5673 5671 5669 5667 5664 5660 5656 5654 5653 5651 5649 5647 5644 5641 5638 5634 5630 5628 5625 5623 5620 5617 5613 5610 5608 5605 5603 5599 5597 5595 5593 5591 5588 5585 5582 5579 5576 5574 5571 5569 5567 5564
5672 5670 5668 5665 5663 5659 5656 5654 5652 5650 5647 5645 5642 5640 5636 5633 5629 5627 5624 5621 5618 5615 5612 5609 5607 5605 5601 5597 5595 5593 5590 5588 5585 5582 5579 5576 5573 5571 5569 5567 5564 5561
5672 5669 5666 5664 5661 5658 5655 5653 5650 5648 5645 5642 5640 5637 5634 5631 5628 5625 5622 5619 5616 5614 5611 5608 5606 5603 5599 5596 5592 5589 5587 5585 5582 5579 5576 5573 5570 5567 5565 5563 5561 5557
5671 5668 5665 5662 5659 5656 5654 5652 5649 5646 5642 5640 5638 5634 5631 5628 5626 5623 5621 5618 5616 5613 5610 5607 5605 5601 5597 5594 5590 5586 5584 5582 5579 5576 5573 5570 5567 5564 5563 5560 5557 5555
5670 5667 5664 5661 5658 5655 5652 5649 5646 5643 5641 5639 5636 5633 5629 5627 5625 5622 5620 5617 5615 5613 5610 5607 5603 5599 5596 5591 5588 5585 5583 5579 5576 5573 5569 5566 5564 5562 5560 5556 5554 5552
5667 5664 5662 5658 5655 5652 5650 5647 5644 5641 5639 5637 5635 5634 5630 5627 5624 5622 5618 5616 5614 5612 5609 5605 5601 5597 5593 5590 5586 5583 5581 5578 5574 5570 5566 5563 5561 5558 5555 5552 5550 5548
5664 5661 5659 5656 5653 5649 5647 5644 5642 5640 5637 5635 5633 5632 5629 5626 5624 5621 5617 5614 5612 5609 5606 5603 5600 5596 5592 5589 5585 5582 5580 5577 5573 5569 5566 5562 5559 5556 5553 5549 5546 5545